Home   Weather   Białystok   Past weeks

Flag for Poland Past Weather in Białystok, Poland — Yesterday and Last 2 Weeks

Now
55 °F

Overcast.


Feels Like: 55 °F
Forecast: 54 / 66 °F
Wind: 3 mph from Southwest

Location: Bialystok

Current Time: Sep 28, 2016 at 2:12:15 PM

Latest Report: Sep 28, 2016 at 1:00 PM


Visibility: 10 mi

Pressure: 30.18 "Hg

Humidity: 72%

Dew Point: 46 °F

Location of BiałystokLocation

Past Weather in Białystok — Graph

°F

Białystok Temperature Yesterday

Maximum temperature yesterday: 53 °F (at 5:00 PM)
Minimum temperature yesterday: 33 °F (at 2:00 AM)
Average temperature yesterday: 45 °F

High & Low Weather Summary for the Past Weeks

 TemperatureHumidityPressure
High75 °F (Sep 13, 2:00 PM)99% (Sep 25, 7:00 AM)30.41 "Hg (Sep 25, 7:00 AM)
Low33 °F (Sep 27, 2:00 AM)32% (Sep 13, 2:00 PM)29.96 "Hg (Sep 20, 4:00 PM)
Average50 °F82%30.15 "Hg
* Reported Sep 13 1:00 PM — Sep 28 1:00 PM, Białystok, Weather by CustomWeather, © 2016

Note: Actual official high and low records may vary slightly from our data, if they occured in-between our weather recording intervals... More about our weather records

Advertising

Białystok Weather History for the Previous 24 Hours

Scroll right to see more
 ConditionsComfort  
Time TempWeatherWind HumidityBarometerVisibility
1:00 PM
Wed, Sep 28
55 °FOvercast.3 mph72%30.18 "Hg10 mi
12:00 PM51 °FOvercast.2 mph78%30.21 "Hg7 mi
11:00 AM49 °FOvercast.2 mph81%30.24 "Hg8 mi
10:00 AM46 °FOvercast.2 mph86%30.26 "Hg7 mi
9:00 AM45 °FOvercast.2 mph91%30.27 "Hg7 mi
8:00 AM42 °FOvercast.1 mph98%30.29 "Hg6 mi
7:00 AM37 °FFog.1 mph98%30.30 "Hg2 mi
6:00 AM36 °FFog.1 mph97%30.33 "Hg2 mi
5:00 AM36 °FFog.1 mph97%30.34 "Hg2 mi
4:00 AM38 °FFog.No wind96%30.36 "Hg2 mi
3:00 AM40 °FFog.No wind97%30.37 "Hg1 mi
2:00 AM41 °FFog.1 mph96%30.37 "Hg1 mi
1:00 AM43 °FFog.1 mph96%30.37 "Hg1 mi
12:00 AM46 °FFog.No wind95%30.39 "Hg3 mi
11:00 PM
Tue, Sep 27
47 °FFog.No wind95%30.40 "Hg4 mi
10:00 PM47 °FFog.1 mph94%30.40 "Hg4 mi
9:00 PM47 °FFog.1 mph94%30.40 "Hg4 mi
8:00 PM48 °FFog.1 mph93%30.40 "Hg5 mi
7:00 PM49 °FOvercast.1 mph90%30.40 "Hg6 mi
6:00 PM50 °FOvercast.1 mph86%30.39 "Hg7 mi
5:00 PM53 °FOvercast.1 mph67%30.38 "Hg19 mi
4:00 PM53 °FOvercast.1 mph65%30.39 "Hg19 mi
3:00 PM53 °FOvercast.2 mph62%30.40 "Hg19 mi
2:00 PM52 °FOvercast.2 mph63%30.40 "Hg22 mi
Weather by CustomWeather, © 2016

See weather overviewHow to use our weather pages